EW8359 Weather Reports


time (UTC)temp
F
wind
direction
speed
knots
gust
knots
rain 1hr
in
rain 24hr
in
rain mn
in
humidity
%
barometer
mb
20260503010009 45 355 0.0 0.0 0.03 0.28 0.28 95 1009.5
20260503004508 45 360 0.0 0.0 0.04 0.28 0.28 94 1009.4
20260503003008 45 351 0.0 0.0 0.03 0.27 0.27 94 1009.5
20260503001509 45 351 0.0 0.0 0.02 0.26 0.26 94 1009.3
20260503000014 45 355 0.0 0.0 0.01 0.25 0.25 94 1009.1
20260502234508 45 351 0.0 0.0 0.00 0.24 0.24 94 1009.2
20260502233005 45 351 0.0 0.0 0.01 0.24 0.24 94 1009.0
20260502231505 45 351 0.0 0.0 0.02 0.24 0.24 94 1008.9
20260502230005 45 355 0.0 0.0 0.02 0.24 0.24 94 1008.9
20260502224504 45 355 0.0 0.0 0.03 0.24 0.24 94 1008.8
20260502223003 45 5 0.0 0.0 0.02 0.23 0.23 94 1008.7
20260502221502 45 23 0.0 1.7 0.02 0.22 0.22 94 1008.7
20260502220001 45 355 0.0 0.0 0.03 0.22 0.22 94 1008.9
20260502214616 45 330 0.0 0.0 0.03 0.21 0.21 94 1009.0
20260502213121 45 328 0.0 0.0 0.05 0.21 0.21 93 1009.1
20260502211600 45 329 0.0 0.0 0.05 0.20 0.20 93 1009.2
20260502210058 46 329 0.0 0.0 0.06 0.19 0.19 93 1009.2
20260502204557 46 338 0.0 0.0 0.08 0.18 0.18 93 1009.2
20260502203114 46 336 0.0 0.0 0.07 0.16 0.16 92 1009.2
20260502201556 46 316 0.0 0.0 0.06 0.15 0.15 92 1009.1
20260502200059 46 5 0.0 0.0 0.03 0.12 0.12 92 1009.2
20260502194555 46 5 0.0 0.0 0.01 0.10 0.10 92 1009.2
20260502193054 46 355 0.0 0.0 0.01 0.09 0.09 92 1009.1
20260502191559 47 326 0.0 0.0 0.03 0.09 0.09 91 1009.1
20260502190051 47 335 0.0 0.0 0.04 0.09 0.09 91 1009.3
20260502184548 47 315 0.0 0.0 0.04 0.09 0.09 90 1009.6
20260502183048 47 57 0.0 0.0 0.03 0.08 0.08 89 1009.7
20260502181547 48 355 0.0 0.0 0.01 0.06 0.06 88 1009.7
20260502163138 47 16 0.0 2.6 0.00 0.05 0.05 89 1009.8
20260502161553 47 22 0.0 0.0 0.00 0.05 0.05 89 1010.0
20260502151536 46 28 0.0 0.0 0.00 0.05 0.05 90 1010.2
20260502123021 43 17 0.0 0.0 0.00 0.02 0.02 89 1010.9
20260502121520 43 31 0.0 0.0 0.01 0.02 0.02 90 1010.8
20260502114513 42 32 0.0 0.0 0.02 0.02 0.02 90 1011.0
20260502113014 42 249 0.0 0.0 0.02 0.02 0.02 90 1011.2
20260502111512 42 250 0.0 0.0 0.01 0.01 0.01 90 1011.2
20260502110015 42 250 0.0 0.0 0.00 0.00 0.00 89 1011.2
20260502104516 41 250 0.0 0.0 0.00 0.00 0.00 88 1011.0
20260502103010 41 250 0.0 0.0 0.00 0.00 0.00 88 1011.1
20260502101511 41 285 0.0 0.0 0.00 0.00 0.00 86 1010.8
20260502091504 40 247 0.0 0.0 0.00 0.00 0.00 81 1010.0
20260502070110 40 247 0.0 0.0 0.00 0.00 0.00 78 1010.8
20260502064552 39 247 0.0 0.0 0.00 0.00 0.00 79 1010.6
20260502063051 39 247 0.0 0.0 0.00 0.00 0.00 79 1010.5
20260502061547 38 247 0.0 0.0 0.00 0.00 0.00 78 1010.5
20260502060050 38 247 0.0 0.0 0.00 0.00 0.00 80 1010.2
20260502054541 37 247 0.0 0.0 0.00 0.00 0.00 77 1010.1
20260502053039 37 247 0.0 0.0 0.00 0.00 0.00 78 1010.2
20260502051537 37 247 0.0 0.0 0.00 0.00 0.00 79 1010.1
20260502050041 36 247 0.0 0.0 0.00 0.00 0.00 77 1010.0
20260502044531 37 247 0.0 0.0 0.00 0.01 0.00 76 1010.1
20260502043034 37 247 0.0 0.0 0.00 0.01 0.00 76 1010.0
20260502041527 37 247 0.0 0.0 0.00 0.01 0.00 77 1009.9
20260502040023 37 247 0.0 0.0 0.00 0.01 0.00 75 1009.8
20260502034523 38 247 0.0 0.0 0.00 0.01 0.01 73 1009.7
20260502033024 38 247 0.0 0.0 0.00 0.01 0.01 71 1009.8
20260502031521 39 247 0.0 0.0 0.00 0.01 0.01 69 1009.7
20260502030023 40 247 0.0 0.0 0.00 0.01 0.01 69 1009.6
20260502024526 40 247 0.0 0.0 0.00 0.01 0.01 68 1009.5
20260502023020 40 247 0.0 0.0 0.00 0.01 0.01 67 1009.6
20260502021519 41 247 0.0 0.0 0.00 0.01 0.01 66 1009.6
20260502020019 41 247 0.0 0.0 0.00 0.01 0.01 66 1009.7
20260502014518 42 247 0.0 0.0 0.00 0.01 0.01 66 1009.7
20260502013017 42 247 0.0 0.0 0.00 0.01 0.01 65 1009.6
20260502011517 42 247 0.0 0.0 0.00 0.01 0.01 65 1009.5